Theta_e
304 305 305 305 304 305 305 306 306 305 302 299 298 298 302 305 305 306 307 310 311 312 307 305 305 305 305 303 301 300 300 302 304 306 304 302 302 301 300 299 301 302 305 303 304
301 301 303 302 299 299 302 302 302 301 299 296 298 300 304 306 305 305 307 311 311 307 306 305 303 303 302 303 303 300 300 303 304 304 304 303 302 302 301 300 302 302 302 302 304
301 300 300 299 298 299 299 301 299 301 299 297 299 302 307 307 303 303 306 309 308 307 306 305 304 302 303 302 303 303 304 304 304 304 304 304 303 302 301 302 301 300 301 302 306
300 299 299 298 298 298 300 301 298 298 297 297 300 306 307 305 305 305 305 308 307 307 306 305 302 303 302 303 303 304 304 304 304 304 305 305 303 302 301 302 299 301 306 307 313
300 299 299 298 298 299 299 297 298 299 296 299 301 307 307 303 303 305 305 307 307 307 305 304 304 302 303 304 303 304 304 304 304 304 304 304 304 303 302 300 303 307 308 307 316
300 299 299 299 298 297 297 296 297 296 299 301 304 308 306 305 304 305 307 308 308 307 306 304 304 302 303 304 305 304 304 304 304 306 305 305 303 301 303 306 308 309 309 312 314
300 300 299 299 299 297 296 296 296 298 301 302 306 307 303 303 304 304 306 308 308 307 306 305 305 304 303 306 305 305 304 303 304 305 305 305 303 305 308 309 308 307 315 314 318
302 300 299 299 298 296 296 297 296 300 302 306 307 307 304 304 304 303 305 307 307 308 307 307 306 304 306 306 305 302 301 303 303 305 307 304 308 310 309 311 312 314 314 312 313
303 302 300 299 297 296 297 298 298 302 305 305 304 304 303 303 302 303 305 306 308 308 307 307 306 305 305 301 299 297 302 297 305 305 307 308 311 310 309 311 313 313 312 313 314
303 302 299 297 296 297 298 296 300 301 303 305 302 302 301 301 301 304 304 305 307 308 307 306 302 304 302 300 302 300 298 302 303 306 306 308 311 310 309 310 310 312 313 314 314
304 302 299 296 296 297 298 299 297 297 298 298 298 300 300 301 303 305 304 306 307 305 307 306 307 304 307 303 299 295 294 298 302 307 308 309 311 310 309 309 309 309 309 310 310
304 302 299 296 298 297 297 297 298 297 298 297 297 299 300 301 304 303 304 307 307 307 305 302 304 308 305 305 305 297 299 298 302 307 308 307 309 309 309 308 307 307 306 307 307
304 303 299 296 298 297 299 299 300 300 296 297 296 299 299 302 304 303 303 305 307 307 306 305 307 307 311 311 311 311 309 304 306 304 305 305 306 309 308 308 307 306 305 304 305
304 302 298 296 298 298 298 299 298 299 297 298 299 300 301 301 303 303 303 305 305 307 306 307 305 311 311 311 311 312 310 311 310 308 304 303 306 308 309 309 307 306 304 303 303
304 302 296 297 298 295 297 299 297 298 306 298 298 300 300 302 302 303 303 304 305 306 304 306 306 306 309 309 307 308 308 310 310 308 305 304 308 311 309 309 308 305 303 302 301
303 300 296 297 295 297 298 297 298 301 302 298 298 300 303 301 301 301 303 301 303 306 303 305 304 305 307 305 305 304 310 310 307 303 303 304 306 306 307 310 308 304 302 301 299
303 297 296 297 297 297 297 296 299 303 294 294 299 300 301 301 302 303 303 300 300 298 296 301 306 304 304 306 305 306 308 310 306 303 306 302 306 304 307 307 306 303 301 299 298
302 297 296 296 296 297 297 295 295 290 289 295 299 300 302 300 302 302 304 300 301 299 295 300 298 305 304 306 308 307 306 307 308 307 304 303 307 304 304 304 303 299 298 297 295
300 296 296 296 296 298 292 293 296 291 296 297 298 295 295 300 301 302 301 300 302 302 299 298 299 303 304 305 305 306 306 303 304 294 302 303 303 302 301 300 299 298 296 295 293
298 298 297 295 297 294 292 295 290 293 295 297 294 294 289 293 298 299 301 300 302 302 301 302 303 303 306 304 303 307 305 306 303 302 301 303 306 305 304 302 299 297 295 293 292
297 293 297 295 295 290 293 287 287 291 296 298 295 292 297 296 291 297 300 300 299 301 302 302 303 301 302 304 305 304 306 304 301 303 305 304 303 300 302 302 299 296 294 293 291
297 300 296 296 291 276 287 286 294 292 296 295 296 295 298 297 298 297 300 300 297 299 304 303 303 302 304 303 304 305 307 305 303 302 301 304 303 301 300 300 297 295 293 292 291
296 297 296 294 292 286 283 286 291 293 295 296 296 297 298 299 295 299 298 298 296 300 303 302 296 294 295 298 300 305 305 306 302 301 303 303 301 300 299 298 296 294 292 291 290
297 300 297 296 292 292 290 292 289 293 295 295 296 297 297 296 291 293 300 298 296 299 302 301 300 298 296 300 301 304 304 305 304 300 303 302 302 304 301 298 295 293 291 290 289
296 302 297 297 297 293 293 290 290 291 295 295 296 297 297 295 294 294 292 298 297 297 298 296 294 295 300 301 300 301 302 303 305 304 303 301 301 301 301 298 295 293 291 290 290
300 299 297 297 295 294 293 291 294 293 294 295 296 296 296 295 296 294 297 296 297 296 298 295 291 289 290 291 293 298 299 299 300 303 302 303 304 299 300 294 293 292 291 290 290
298 297 303 298 298 298 295 297 296 295 294 295 295 296 296 296 294 293 293 293 295 295 292 290 286 285 289 283 286 291 290 295 299 297 300 303 304 299 298 297 296 293 292 292 290
Wind_Speed
3 5 6 8 9 11 11 12 13 13 13 14 13 10 8 5 13 23 13 12 15 19 19 17 17 11 11 5 7 2 4 1 3 4 7 5 6 4 4 4 5 4 3 9 24
3 4 6 7 8 9 11 12 12 13 13 12 10 9 6 2 6 17 12 15 16 19 16 18 8 10 5 6 5 5 3 1 2 2 5 4 4 7 4 6 5 7 6 19 28
2 4 6 7 8 10 11 12 12 13 12 11 9 8 6 1 3 5 16 16 14 16 9 11 7 5 7 4 6 5 3 4 3 4 4 5 5 3 5 6 5 8 15 14 23
3 4 6 8 9 10 11 12 12 12 12 9 8 7 5 2 2 8 15 14 12 19 16 18 7 5 5 5 4 4 4 4 7 5 5 5 6 6 6 14 6 11 16 13 12
3 5 6 8 9 10 11 11 12 13 10 7 7 6 3 5 3 9 11 13 13 16 24 5 8 3 5 3 3 4 5 7 9 8 5 6 7 5 9 11 15 14 14 10 7
3 5 7 9 9 9 11 12 11 10 7 6 6 4 2 5 3 8 9 9 14 15 17 14 4 3 5 3 3 3 4 6 6 12 2 8 7 5 9 18 18 13 11 4 7
4 6 8 9 10 10 11 11 10 6 6 5 5 4 6 3 2 8 11 8 9 11 4 9 6 4 2 1 1 0 4 6 6 14 5 11 5 9 20 19 8 7 4 6 15
3 5 8 9 11 11 11 9 6 4 4 5 5 4 3 2 3 7 10 5 7 6 6 5 5 6 4 1 4 5 5 5 6 11 6 6 6 16 21 21 9 13 11 13 21
3 5 7 9 11 11 10 6 2 3 4 3 3 3 2 3 4 7 8 4 5 5 4 3 3 3 4 3 4 8 2 3 7 4 7 11 7 14 15 15 14 14 10 16 17
3 5 6 8 10 10 8 3 4 3 2 3 3 3 4 3 5 6 6 5 4 2 3 6 5 4 5 6 1 3 2 3 4 7 6 13 11 13 15 15 14 14 13 18 17
2 4 6 8 9 9 4 3 3 4 9 4 1 1 3 9 2 6 7 2 2 5 4 5 7 1 2 2 4 4 3 2 4 4 8 8 10 11 14 15 15 13 18 21 19
3 4 5 6 6 8 4 6 1 2 5 4 1 2 1 4 4 7 8 2 4 3 2 6 2 2 5 3 2 2 1 4 6 4 5 6 7 8 13 13 14 15 18 14 13
3 4 5 5 3 6 12 6 3 1 4 3 2 2 3 4 2 6 5 2 4 3 5 4 2 5 2 2 4 2 4 2 5 4 1 4 5 11 11 12 15 17 10 13 14
3 3 5 3 3 4 4 4 2 2 4 5 3 3 1 0 3 3 3 2 3 1 2 2 1 3 1 3 1 4 4 2 3 5 3 3 2 5 8 12 16 15 13 14 15
4 2 2 5 6 4 3 2 2 1 3 1 4 3 4 4 2 3 3 2 3 1 3 2 2 2 3 4 3 7 4 4 0 2 2 7 3 6 2 9 11 13 14 15 14
5 2 2 4 5 6 4 3 2 6 3 2 2 4 3 5 5 6 3 6 2 2 2 2 2 2 2 2 3 5 4 4 3 2 3 5 1 5 4 4 4 11 12 12 13
6 4 5 4 4 4 3 3 5 4 5 5 2 3 2 5 4 5 4 5 2 4 5 5 1 1 0 1 1 2 4 4 6 5 3 3 3 4 0 2 2 3 7 8 11
8 5 7 8 6 3 1 5 5 2 4 3 2 2 3 6 4 6 2 3 4 4 3 3 5 2 3 2 1 3 2 4 2 3 5 4 2 3 2 2 1 3 4 7 7
11 8 4 4 5 3 5 5 7 6 3 5 2 4 5 3 2 4 2 2 1 3 4 3 4 3 3 2 1 1 3 1 4 1 2 4 3 4 3 2 1 2 6 6 5
11 7 3 2 3 3 4 3 3 3 2 2 3 1 2 3 3 3 2 3 2 1 1 4 3 1 2 1 2 1 2 2 3 2 4 4 4 4 8 8 5 4 6 4 5
7 3 1 2 2 5 3 5 3 4 1 3 4 2 2 2 2 2 2 1 1 2 0 4 2 4 2 2 2 2 0 3 2 2 3 3 5 4 6 8 9 7 4 6 5
6 2 2 3 3 2 3 5 2 3 0 2 3 3 4 4 2 2 2 2 2 1 3 1 3 3 3 3 1 1 2 2 3 3 2 2 6 2 5 7 8 7 7 4 5
3 3 3 3 3 2 3 2 2 2 4 4 3 3 1 4 1 3 2 1 1 2 1 2 2 3 7 5 2 3 3 2 3 2 5 4 5 3 4 6 5 8 7 6 4
3 3 2 2 1 4 4 2 2 2 1 3 4 4 3 2 2 3 3 1 1 1 2 2 1 5 5 3 1 3 5 5 4 3 3 6 4 3 5 7 7 7 6 7 6
2 2 2 4 4 4 1 4 4 4 1 3 1 5 6 3 1 4 2 2 0 1 3 3 3 2 5 6 3 5 6 7 8 5 6 3 6 6 10 12 11 8 6 7 6
6 4 1 2 4 8 3 6 10 4 8 5 5 8 7 6 6 8 6 4 4 2 4 2 2 2 5 5 3 7 11 12 13 8 10 9 19 10 3 7 7 9 10 8 8
5 3 5 6 4 4 6 8 10 8 6 3 8 6 7 9 4 2 3 4 5 7 5 4 4 3 5 4 7 8 9 15 6 6 12 11 11 6 5 10 15 15 14 13 10
Wind_Direction
21 15 14 11 6 1 0 359 358 358 358 356 2 10 18 63 37 44 41 355 345 342 348 14 43 28 54 53 38 53 64 69 2 359 293 327 350 292 290 260 317 248 270 304 322
360 360 1 3 1 358 355 354 354 355 354 357 3 7 12 40 43 46 8 360 357 359 6 17 7 14 51 28 20 53 66 178 187 236 262 274 281 296 321 293 269 282 267 321 327
342 346 353 354 355 353 351 348 350 349 349 352 357 3 9 50 67 354 1 360 7 5 26 26 51 55 59 30 2 344 52 330 277 274 256 273 276 251 288 284 243 280 308 319 317
326 343 346 351 350 349 347 345 345 344 346 350 356 360 27 31 90 353 1 12 23 23 50 35 28 53 66 52 346 67 8 5 296 297 301 293 292 297 243 263 301 308 298 295 296
319 336 342 344 347 344 342 344 342 342 347 360 360 5 7 50 41 354 2 23 30 30 40 44 44 66 81 67 24 38 356 328 296 297 290 274 261 253 273 291 289 298 286 275 295
318 335 339 341 342 342 341 342 342 347 4 5 9 21 36 71 4 7 17 31 35 35 39 49 76 67 87 69 75 313 311 290 302 351 306 343 314 29 303 301 295 294 278 252 321
318 339 337 340 340 341 342 343 343 358 8 22 23 40 59 133 33 14 19 36 29 31 48 52 81 79 154 89 106 255 21 343 320 350 312 330 33 350 329 329 318 301 109 31 7
323 340 337 339 339 341 340 346 346 25 32 43 37 17 78 13 16 12 18 49 21 28 55 46 61 103 69 306 24 39 54 16 315 351 302 344 348 351 343 355 10 43 48 25 14
344 346 340 340 340 341 340 355 54 48 73 40 45 48 62 353 29 12 13 31 51 39 33 24 67 83 34 57 28 15 39 355 309 25 333 25 347 346 358 360 4 26 10 23 10
335 349 341 342 345 345 345 79 81 67 41 45 54 53 19 322 328 350 6 4 56 36 359 31 43 58 24 40 6 290 0 327 282 327 352 10 12 0 359 12 13 18 26 24 7
317 345 345 347 351 357 39 102 32 0 40 73 314 100 344 334 357 22 353 4 24 50 29 357 58 48 330 75 142 135 125 240 266 270 352 350 357 1 10 15 19 24 26 21 351
292 334 347 349 6 17 58 76 63 148 82 33 360 24 43 350 6 356 8 61 33 52 41 17 36 156 129 139 113 94 56 289 280 296 321 346 18 19 27 23 23 32 31 5 349
258 327 340 353 43 54 75 82 69 21 87 4 41 359 318 15 63 328 28 4 46 42 38 110 275 143 61 321 330 268 253 216 227 322 6 301 344 15 12 37 35 40 20 14 6
229 319 338 9 125 78 66 82 75 43 79 324 353 349 328 192 59 335 35 88 41 81 75 116 184 172 163 300 94 304 265 235 252 22 317 39 290 18 1 18 25 19 17 8 7
216 301 8 65 117 78 115 105 68 59 44 305 317 307 310 70 270 350 19 30 119 245 94 234 150 154 221 242 146 255 311 284 294 333 50 337 63 316 12 17 15 10 11 8 10
199 177 101 92 79 109 114 94 83 47 266 358 301 343 3 25 5 323 22 39 122 115 9 252 301 158 230 298 216 296 310 296 3 58 47 298 26 317 4 342 15 7 11 3 10
187 158 137 102 108 112 122 79 45 114 0 297 9 24 50 350 5 31 24 16 96 57 357 341 157 329 17 13 345 27 21 345 354 7 236 336 18 271 258 66 43 2 16 17 20
167 154 103 104 107 116 85 53 82 213 226 304 6 38 68 358 24 7 42 33 26 60 87 84 337 10 350 83 258 35 71 136 238 327 296 352 62 256 211 168 176 49 65 57 33
156 129 102 88 112 119 74 58 191 194 168 146 69 63 327 2 352 26 47 174 347 38 121 71 299 320 35 12 73 335 58 197 110 64 20 305 291 95 139 198 195 76 56 38 25
149 118 65 79 111 95 74 211 152 187 156 169 130 145 174 277 21 33 343 262 132 100 170 197 352 303 297 111 1 59 165 54 6 35 314 297 280 235 194 203 200 171 134 119 90
133 75 73 103 70 48 147 210 207 222 210 133 171 121 208 199 176 226 242 257 275 179 28 152 101 283 43 21 171 6 355 73 116 142 180 315 274 211 221 178 178 181 164 127 104
133 88 65 138 53 335 149 179 207 159 145 107 108 117 165 158 147 268 244 270 336 189 160 249 133 259 206 153 235 178 246 151 127 242 225 160 275 359 275 179 158 165 170 180 143
102 120 47 68 137 271 315 343 205 128 172 147 146 136 153 152 55 185 242 340 351 320 160 202 327 351 344 359 351 201 191 205 114 73 213 146 262 38 89 140 163 163 183 173 151
112 116 40 61 115 145 153 175 184 320 140 136 123 105 104 116 353 200 207 156 97 96 54 352 214 193 205 218 133 247 191 196 168 141 206 230 270 244 198 184 182 190 184 180 183
79 203 192 181 234 159 153 131 143 166 272 206 52 199 171 143 89 236 288 163 129 177 72 104 220 339 283 266 250 250 228 197 204 209 196 268 223 242 214 201 196 182 166 178 190
136 144 37 97 121 126 200 220 173 196 151 232 207 183 176 173 189 195 153 199 196 105 149 67 260 67 295 328 298 268 242 233 232 232 256 261 271 213 232 137 171 187 177 190 195
154 135 125 147 149 143 204 192 203 144 215 188 168 122 188 223 164 91 103 99 151 157 154 136 133 79 271 339 322 292 229 204 187 203 205 213 228 160 188 194 196 193 187 191 190